ZHONGXING-4A

Last updated on Fri Sep 19 2025 00:02:52 GMT+0000 (Coordinated Universal Time)

1 60606U 24151A 25261.32001992 -.00000386 00000+0 00000+0 0 9999 2 60606 2.0208 273.8296 0000712 308.5332 8.5488 1.00272582 4029
UTC large
Height (km)
Speed (km/s)
/
Latitude / Longitude
Inclination (degrees)
Orbital Period (minutes)
Azimuth
Elevation
Range (km)
Doppler Factor

Next 0 passes for location: London (51.5072 / 0.1276)

Sorry there are no passes over London.